#timestamp,LO_Frequency,Hit,StdDev 
1459036815.4,286047004.2,N
1459036835.3,286047005.9,N
1459036855.1,286047004.3,N
1459036856.0,286047004.3,N
1459036875.8,286047002.1,N
1459036895.7,286047007.2,N
1459036915.5,286047007.9,N
1459036935.3,286047009.4,N
1459036955.1,286047010.2,N
1459036975.9,286047004.8,N
1459036995.7,286047007.2,N
1459037015.5,286047005.8,N
1459037035.4,286047003.4,N
1459037055.2,286047006.0,N
1459037075.0,286047004.5,N
1459037075.9,286047004.5,N
1459037095.8,286047007.4,N
1459037115.6,286047010.0,N
1459037135.4,286047013.4,N
1459037155.3,286047015.3,Y
1459037175.1,286047009.8,P
1459037176.0,286047009.8,P
1459037195.8,286047013.0,P
1459037215.7,286047017.2,Y
1459037235.5,286047007.6,P
1459037255.3,286047004.6,P
1459037275.2,286047007.1,P
1459037295.9,286047010.1,Y
1459037315.7,286047005.1,P
1459037335.6,286047006.0,P
1459037355.4,286047008.3,P
1459037375.2,286047009.6,Y
1459037395.1,286047003.6,P
1459037396.0,286047003.6,N
1459037415.8,286047006.1,P
1459037435.6,286047004.8,Y
1459037455.5,286047001.9,P
1459037475.3,286047002.6,N
1459037495.1,286047003.9,N
1459037515.9,286047003.7,Y
1459037535.7,286047002.8,P
1459037555.5,286047000.5,N
1459037575.4,286047001.7,N
1459037595.2,286047002.4,N
1459037615.0,286046999.7,N
1459037615.9,286046999.7,N
1459037635.8,286047002.4,N
1459037655.6,286047000.0,N
1459037675.4,286047002.1,N
1459037695.3,286047001.7,N
1459037715.1,286047001.6,N
1459037716.0,286047001.6,N
1459037735.8,286046998.1,N
1459037755.7,286046998.5,N
1459037775.5,286046996.8,N
1459037795.3,286046998.1,N
1459037815.1,286046999.6,N
1459037835.9,286046994.9,N
1459037855.7,286046995.7,N
1459037875.5,286046993.9,N
1459037895.4,286046994.0,N
1459037915.2,286046995.6,N
1459037935.0,286046996.2,N
1459037935.9,286046996.2,N
1459037955.8,286046994.6,N
1459037975.6,286046996.1,N
1459037995.4,286046994.5,N
1459038015.3,286046996.0,N
1459038035.1,286046994.5,N
1459038036.0,286046994.5,N
1459038055.8,286046994.0,N
1459038075.7,286046995.3,N
1459038095.5,286046997.7,N
1459038115.3,286046999.6,N
1459038135.1,286046998.2,N
1459038155.9,286046997.6,N
1459038175.7,286046993.3,N
1459038195.5,286046994.5,N
1459038215.4,286046992.0,Y
1459038235.2,286046996.9,P
1459038255.0,286046996.9,P
1459038256.0,286046996.9,P
1459038275.8,286046999.0,Y
1459038295.6,286047005.0,P
1459038315.5,286047006.9,N
1459038335.3,286047005.5,N
1459038355.1,286047004.4,N
1459038375.8,286047005.4,N
1459038395.7,286047007.6,N
1459038415.5,286047005.4,N
1459038435.3,286047001.5,N
1459038455.2,286047000.1,N
1459038475.9,286046999.7,N
1459038495.7,286046999.0,N
1459038515.6,286047000.4,N
1459038535.4,286046999.7,N
1459038555.2,286047000.4,N
1459038575.1,286046996.6,N
1459038576.0,286046996.6,N
1459038595.8,286046998.3,N
1459038615.6,286046998.4,N
1459038635.5,286046997.4,N
1459038655.3,286046997.7,N
1459038675.1,286046996.5,N
1459038695.8,286046998.8,N
1459038715.7,286046999.3,N
1459038735.5,286046997.6,N
1459038755.3,286046996.2,N
1459038775.2,286046995.2,N
1459038795.9,286046997.9,N
1459038815.7,286046999.5,N
1459038835.6,286046998.5,N
1459038855.4,286046996.7,N
1459038875.2,286046996.5,N
1459038895.1,286046997.6,N
1459038896.0,286046997.6,N
1459038915.8,286046996.5,N
1459038935.6,286046997.1,N
1459038955.5,286046993.5,N
1459038975.3,286046994.0,N
1459038995.1,286046997.5,N
1459039015.9,286046999.1,N
1459039035.7,286046994.9,Y
1459039055.5,286046999.6,P
1459039075.4,286046999.4,N
1459039095.2,286046996.5,P
1459039115.0,286046998.6,N
1459039115.9,286046998.6,N
1459039135.7,286046998.2,N
1459039155.6,286046999.9,N
1459039175.4,286047002.7,N
1459039195.2,286047002.5,N
1459039215.1,286047001.9,N
1459039216.0,286047001.9,N
1459039235.8,286047002.0,N
1459039255.6,286047003.7,N
1459039275.5,286047006.3,N
1459039295.3,286047007.2,N
1459039315.1,286047004.2,N
1459039335.9,286047004.1,N
1459039355.7,286047002.3,N
1459039375.5,286047002.7,N
1459039395.4,286047002.2,N
1459039415.2,286047004.0,N
1459039435.0,286047003.9,N
1459039435.9,286047003.9,N
1459039455.7,286047001.6,N
1459039475.6,286046999.5,N
1459039495.4,286046998.4,N
1459039515.2,286047000.7,N
1459039535.1,286046999.5,N
1459039536.0,286046999.5,N
1459039555.8,286046998.7,N
1459039575.6,286046999.8,N
1459039595.5,286047001.2,N
1459039615.3,286047002.1,N
1459039635.1,286047001.9,N
1459039655.9,286047001.5,N
1459039675.7,286047002.1,N
1459039695.5,286047001.3,N
1459039715.4,286047007.6,Y
1459039735.2,286047002.7,P
1459039755.0,286047000.0,N
1459039755.9,286047000.0,N
1459039775.8,286046999.8,N
1459039795.6,286047002.3,N
1459039815.4,286046999.9,N
1459039835.3,286047000.9,N
1459039855.1,286046996.5,Y
1459039856.0,286046996.5,P
1459039875.8,286046995.9,N
1459039895.7,286046997.3,N
1459039915.5,286047000.3,N
1459039935.3,286046998.6,N
1459039955.2,286046996.7,N
1459039975.9,286046995.6,N
1459039995.7,286046995.8,N
1459040015.6,286046993.8,Y
1459040035.4,286046995.9,P
1459040055.2,286046997.8,N
1459040075.0,286046997.1,P
1459040076.0,286046997.1,Y
1459040095.8,286046998.6,P
1459040115.6,286046999.5,N
1459040135.5,286046999.4,N
1459040155.3,286046996.6,Y
1459040175.1,286047002.4,P
1459040195.9,286047002.3,N
1459040215.7,286047000.3,N
1459040235.5,286046998.1,N
1459040255.3,286046996.9,N
1459040275.2,286046997.8,N
1459040295.0,286046999.5,N
1459040295.9,286046999.5,N
1459040315.7,286046998.4,N
1459040335.6,286046998.1,N
1459040355.4,286047000.7,N
1459040375.2,286046998.5,N
1459040395.1,286047000.2,N
1459040396.0,286047000.2,N
